• In Lithuania
  • List of Countries
  • For 7 days
  • Water Temperature
  • Satellite Maps
  • Weather Map
  • Weather Widgets
  • user-avatar
    Login

    Hourly Weather Prutz

    Today, 21 September, Thursday

    Time Temperature Precipitation Wind Pressure Humidity
    00:00 0°C° 0 mm 1 mps 634 mmHg 92%
    01:00 0°C° 0 mm 1 mps 634 mmHg 90%
    02:00 0°C° 0 mm 1 mps 634 mmHg 87%
    03:00 0°C° 0 mm 1 mps 634 mmHg 84%
    04:00 0°C° 0 mm 1 mps 634 mmHg 81%
    05:00 +1°C° 0 mm 1 mps 634 mmHg 77%
    06:00 +1°C° 0 mm 1 mps 634 mmHg 72%
    07:00 +2°C° 0 mm 1 mps 634 mmHg 68%
    08:00 +5°C° 0 mm 1 mps 635 mmHg 61%
    09:00 +8°C° 0 mm 1 mps 636 mmHg 54%
    10:00 +11°C° 0 mm 1 mps 636 mmHg 47%
    11:00 +11°C° 0 mm 1 mps 636 mmHg 46%
    12:00 +12°C° 0 mm 2 mps 636 mmHg 46%
    13:00 +13°C° 0 mm 2 mps 636 mmHg 45%
    14:00 +13°C° 0 mm 2 mps 636 mmHg 46%
    15:00 +13°C° 0 mm 2 mps 636 mmHg 48%
    16:00 +13°C° 0 mm 2 mps 636 mmHg 50%
    17:00 +10°C° 0 mm 1 mps 635 mmHg 60%
    18:00 +7°C° 0 mm 1 mps 634 mmHg 69%
    19:00 +5°C° 0 mm 1 mps 633 mmHg 79%
    20:00 +5°C° 0 mm 1 mps 634 mmHg 78%
    21:00 +4°C° 0 mm 1 mps 634 mmHg 77%
    22:00 +4°C° 0 mm 1 mps 634 mmHg 77%
    23:00 +4°C° 0 mm 1 mps 634 mmHg 73%

    Tomorrow, 22 September, Friday

    Time Temperature Precipitation Wind Pressure Humidity
    00:00 +4°C° 0 mm 1 mps 634 mmHg 70%
    01:00 +5°C° 0 mm 1 mps 635 mmHg 67%
    02:00 +4°C° 0 mm 1 mps 634 mmHg 66%
    03:00 +4°C° 0 mm 1 mps 634 mmHg 64%
    04:00 +4°C° 0 mm 1 mps 634 mmHg 63%
    05:00 +5°C° 0 mm 1 mps 635 mmHg 62%
    06:00 +6°C° 0 mm 1 mps 635 mmHg 61%
    07:00 +6°C° 0 mm 1 mps 635 mmHg 61%
    08:00 +9°C° 0 mm 1 mps 636 mmHg 57%
    09:00 +11°C° 0 mm 1 mps 637 mmHg 53%
    10:00 +14°C° 0 mm 1 mps 638 mmHg 49%
    11:00 +15°C° 0 mm 1 mps 638 mmHg 49%
    12:00 +15°C° 0 mm 2 mps 638 mmHg 49%
    13:00 +16°C° 0 mm 2 mps 638 mmHg 48%
    14:00 +15°C° 0 mm 2 mps 638 mmHg 51%
    15:00 +15°C° 0 mm 2 mps 638 mmHg 55%
    16:00 +14°C° 0 mm 2 mps 637 mmHg 58%
    17:00 +12°C° 0 mm 2 mps 637 mmHg 68%
    18:00 +10°C° 0 mm 1 mps 636 mmHg 77%
    19:00 +7°C° 0 mm 1 mps 636 mmHg 87%
    20:00 +7°C° 0 mm 1 mps 636 mmHg 88%
    21:00 +6°C° 0 mm 1 mps 636 mmHg 89%
    22:00 +6°C° 0 mm 1 mps 636 mmHg 90%
    23:00 +6°C° 0 mm 1 mps 636 mmHg 89%

    Day after tomorrow, 23 September, Saturday

    Time Temperature Precipitation Wind Pressure Humidity
    00:00 +6°C° 0 mm 1 mps 636 mmHg 88%
    01:00 +5°C° 0 mm 1 mps 636 mmHg 87%
    02:00 +5°C° 0 mm 1 mps 636 mmHg 86%
    03:00 +5°C° 0 mm 1 mps 636 mmHg 84%
    04:00 +5°C° 0 mm 1 mps 636 mmHg 83%
    05:00 +6°C° 0 mm 1 mps 636 mmHg 80%
    06:00 +6°C° 0 mm 1 mps 636 mmHg 78%
    07:00 +7°C° 0 mm 1 mps 636 mmHg 76%
    08:00 +9°C° 0 mm 1 mps 637 mmHg 70%
    09:00 +11°C° 0 mm 1 mps 638 mmHg 63%
    10:00 +13°C° 0 mm 1 mps 638 mmHg 57%
    11:00 +14°C° 0 mm 1 mps 638 mmHg 56%
    12:00 +15°C° 0 mm 1 mps 638 mmHg 54%
    13:00 +15°C° 0 mm 1 mps 638 mmHg 53%
    14:00 +15°C° 0.1 mm 2 mps 638 mmHg 58%
    15:00 +14°C° 0.1 mm 2 mps 637 mmHg 62%
    16:00 +14°C° 0.1 mm 2 mps 637 mmHg 67%
    17:00 +12°C° 0.2 mm 2 mps 636 mmHg 75%
    18:00 +10°C° 0.2 mm 1 mps 636 mmHg 84%
    19:00 +8°C° 0.2 mm 1 mps 635 mmHg 93%
    20:00 +8°C° 0.1 mm 1 mps 635 mmHg 94%
    21:00 +8°C° 0.1 mm 1 mps 635 mmHg 95%
    22:00 +7°C° 0.1 mm 1 mps 635 mmHg 95%
    23:00 +7°C° 0 mm 1 mps 635 mmHg 95%

    24 September, Sunday

    Time Temperature Precipitation Wind Pressure Humidity
    00:00 +6°C° 0 mm 1 mps 635 mmHg 95%
    01:00 +6°C° 0 mm 1 mps 635 mmHg 95%
    02:00 +6°C° 0 mm 1 mps 634 mmHg 95%
    03:00 +5°C° 0 mm 1 mps 634 mmHg 95%
    04:00 +5°C° 0 mm 1 mps 634 mmHg 94%
    05:00 +5°C° 0 mm 1 mps 634 mmHg 93%
    06:00 +6°C° 0 mm 1 mps 634 mmHg 91%
    07:00 +6°C° 0 mm 1 mps 635 mmHg 89%
    08:00 +8°C° 0.1 mm 1 mps 635 mmHg 83%
    09:00 +10°C° 0.1 mm 1 mps 635 mmHg 77%
    10:00 +11°C° 0.1 mm 1 mps 636 mmHg 71%
    11:00 +12°C° 0.4 mm 2 mps 636 mmHg 71%
    12:00 +12°C° 0.4 mm 2 mps 636 mmHg 71%
    13:00 +12°C° 0.4 mm 2 mps 635 mmHg 72%
    14:00 +12°C° 0.7 mm 2 mps 635 mmHg 74%
    15:00 +10°C° 0.7 mm 2 mps 635 mmHg 77%
    16:00 +10°C° 0.7 mm 2 mps 635 mmHg 79%
    17:00 +9°C° 0.4 mm 2 mps 634 mmHg 84%
    18:00 +9°C° 0.4 mm 1 mps 634 mmHg 89%
    19:00 +7°C° 0.4 mm 1 mps 634 mmHg 93%
    20:00 +7°C° 0.1 mm 1 mps 634 mmHg 94%
    21:00 +7°C° 0.1 mm 1 mps 634 mmHg 95%
    22:00 +6°C° 0.1 mm 1 mps 634 mmHg 96%
    23:00 +6°C° 0 mm 1 mps 634 mmHg 95%

    25 September, Monday

    Time Temperature Precipitation Wind Pressure Humidity
    00:00 +5°C° 0 mm 1 mps 634 mmHg 95%
    01:00 +5°C° 0 mm 1 mps 633 mmHg 95%
    02:00 +5°C° 0 mm 1 mps 633 mmHg 95%
    03:00 +5°C° 0 mm 1 mps 633 mmHg 95%
    04:00 +4°C° 0 mm 1 mps 633 mmHg 95%
    05:00 +5°C° 0 mm 1 mps 633 mmHg 94%
    06:00 +5°C° 0 mm 1 mps 633 mmHg 93%
    07:00 +5°C° 0 mm 1 mps 633 mmHg 92%
    08:00 +7°C° 0 mm 1 mps 633 mmHg 85%
    09:00 +8°C° 0 mm 0 mps 634 mmHg 78%
    10:00 +10°C° 0 mm 0 mps 634 mmHg 71%
    11:00 +11°C° 0.2 mm 1 mps 634 mmHg 70%
    12:00 +12°C° 0.2 mm 1 mps 634 mmHg 68%
    13:00 +12°C° 0.2 mm 1 mps 634 mmHg 67%
    14:00 +12°C° 0.4 mm 1 mps 634 mmHg 71%
    15:00 +11°C° 0.4 mm 1 mps 634 mmHg 74%
    16:00 +11°C° 0.4 mm 1 mps 634 mmHg 78%
    17:00 +10°C° 0.5 mm 1 mps 634 mmHg 83%
    18:00 +9°C° 0.5 mm 1 mps 634 mmHg 88%
    19:00 +8°C° 0.5 mm 1 mps 634 mmHg 93%
    20:00 +7°C° 0.3 mm 1 mps 634 mmHg 93%
    21:00 +7°C° 0.3 mm 1 mps 634 mmHg 94%
    22:00 +7°C° 0.3 mm 1 mps 633 mmHg 94%
    23:00 +7°C° 0.3 mm 1 mps 634 mmHg 94%

    26 September, Tuesday

    Time Temperature Precipitation Wind Pressure Humidity
    00:00 +7°C° 0.3 mm 1 mps 634 mmHg 94%
    01:00 +7°C° 0.3 mm 1 mps 634 mmHg 93%
    02:00 +7°C° 0.3 mm 1 mps 634 mmHg 93%
    03:00 +6°C° 0.3 mm 1 mps 634 mmHg 94%
    04:00 +6°C° 0.3 mm 1 mps 634 mmHg 94%
    05:00 +6°C° 0.2 mm 1 mps 634 mmHg 93%
    06:00 +6°C° 0.2 mm 1 mps 634 mmHg 93%
    07:00 +6°C° 0.2 mm 1 mps 634 mmHg 93%
    08:00 +8°C° 0 mm 1 mps 635 mmHg 85%
    09:00 +10°C° 0 mm 1 mps 635 mmHg 78%
    10:00 +12°C° 0 mm 1 mps 636 mmHg 71%
    11:00 +13°C° 0.1 mm 1 mps 636 mmHg 68%
    12:00 +13°C° 0.1 mm 1 mps 636 mmHg 66%
    13:00 +14°C° 0.1 mm 1 mps 636 mmHg 63%
    14:00 +13°C° 0.4 mm 1 mps 636 mmHg 67%
    15:00 +13°C° 0.4 mm 1 mps 635 mmHg 70%
    16:00 +13°C° 0.4 mm 1 mps 635 mmHg 74%
    17:00 +11°C° 0.5 mm 1 mps 635 mmHg 80%
    18:00 +9°C° 0.5 mm 1 mps 635 mmHg 85%
    19:00 +7°C° 0.5 mm 0 mps 635 mmHg 90%
    20:00 +8°C° 0.1 mm 1 mps 635 mmHg 90%
    21:00 +7°C° 0.1 mm 1 mps 635 mmHg 90%
    22:00 +7°C° 0.1 mm 1 mps 635 mmHg 90%
    23:00 +7°C° 0 mm 1 mps 635 mmHg 90%
    Show more